Wetterdaten: Freitag, 13.06.2014
Datum Zeit Temp. A. Temp. A. min Temp. A. max Feuchte A. Bod.Feucht 4 Luftdruck Regen Wind Richtung Richtung Sonnenschein ET Solar Taupunkt Windchill Windben Empfang
13.06.2014 00:00 16,9 C 0,0 C 0,0 C 57 % 0 cb 1022,5 hPa 0,0 l/m 7,9 km/h (2 Bft) SO 145 0 min 0,000 mm 0 W/m 8,3 C 16,9 C 7,9 km/h (2 Bft) 0,00 %
13.06.2014 00:05 16,8 C 0,0 C 0,0 C 57 % 0 cb 1022,5 hPa 0,0 l/m 8,5 km/h (2 Bft) NO 50 0 min 0,000 mm 0 W/m 8,2 C 16,8 C 8,5 km/h (2 Bft) 0,00 %
13.06.2014 00:10 16,7 C 0,0 C 0,0 C 58 % 0 cb 1022,5 hPa 0,0 l/m 6,1 km/h (2 Bft) O 85 0 min 0,000 mm 0 W/m 8,4 C 16,7 C 6,1 km/h (2 Bft) 0,00 %
13.06.2014 00:15 16,6 C 0,0 C 0,0 C 58 % 0 cb 1022,5 hPa 0,0 l/m 10,3 km/h (2 Bft) NO 40 0 min 0,000 mm 0 W/m 8,3 C 16,6 C 10,3 km/h (2 Bft) 0,00 %
13.06.2014 00:20 16,5 C 0,0 C 0,0 C 58 % 0 cb 1022,5 hPa 0,0 l/m 7,0 km/h (2 Bft) N 0 0 min 0,000 mm 0 W/m 8,2 C 16,5 C 7,0 km/h (2 Bft) 0,00 %
13.06.2014 00:25 16,3 C 0,0 C 0,0 C 59 % 0 cb 1022,5 hPa 0,0 l/m 8,2 km/h (2 Bft) N-NO 30 0 min 0,000 mm 0 W/m 8,3 C 16,3 C 8,2 km/h (2 Bft) 0,00 %
13.06.2014 00:30 16,2 C 0,0 C 0,0 C 59 % 0 cb 1021,5 hPa 0,0 l/m 6,4 km/h (2 Bft) N-NO 25 0 min 0,000 mm 0 W/m 8,2 C 16,2 C 6,4 km/h (2 Bft) 0,00 %
13.06.2014 00:35 16,1 C 0,0 C 0,0 C 59 % 0 cb 1021,5 hPa 0,0 l/m 8,8 km/h (2 Bft) NW 310 0 min 0,000 mm 0 W/m 8,1 C 16,1 C 8,8 km/h (2 Bft) 0,00 %
13.06.2014 00:40 16,0 C 0,0 C 0,0 C 60 % 0 cb 1021,5 hPa 0,0 l/m 8,5 km/h (2 Bft) NO 55 0 min 0,000 mm 0 W/m 8,2 C 16,0 C 8,5 km/h (2 Bft) 0,00 %
13.06.2014 00:45 16,0 C 0,0 C 0,0 C 60 % 0 cb 1022,5 hPa 0,0 l/m 8,8 km/h (2 Bft) N 350 0 min 0,000 mm 0 W/m 8,2 C 16,0 C 8,8 km/h (2 Bft) 0,00 %
13.06.2014 00:50 15,8 C 0,0 C 0,0 C 61 % 0 cb 1022,5 hPa 0,0 l/m 6,7 km/h (2 Bft) N-NO 30 0 min 0,000 mm 0 W/m 8,3 C 15,8 C 6,7 km/h (2 Bft) 0,00 %
13.06.2014 00:55 15,8 C 0,0 C 0,0 C 61 % 0 cb 1022,5 hPa 0,0 l/m 7,3 km/h (2 Bft) N-NW 330 0 min 0,000 mm 0 W/m 8,3 C 15,8 C 7,3 km/h (2 Bft) 0,00 %
13.06.2014 01:00 15,8 C 0,0 C 0,0 C 61 % 0 cb 1022,5 hPa 0,0 l/m 10,9 km/h (2 Bft) NO 45 0 min 0,000 mm 0 W/m 8,3 C 15,8 C 10,9 km/h (2 Bft) 0,00 %
13.06.2014 01:05 15,7 C 0,0 C 0,0 C 61 % 0 cb 1022,5 hPa 0,0 l/m 9,1 km/h (2 Bft) N 0 0 min 0,000 mm 0 W/m 8,2 C 15,7 C 9,1 km/h (2 Bft) 0,00 %
13.06.2014 01:10 15,6 C 0,0 C 0,0 C 61 % 0 cb 1022,5 hPa 0,0 l/m 8,5 km/h (2 Bft) O 80 0 min 0,000 mm 0 W/m 8,1 C 15,6 C 8,5 km/h (2 Bft) 0,00 %
13.06.2014 01:15 15,6 C 0,0 C 0,0 C 62 % 0 cb 1021,5 hPa 0,0 l/m 5,4 km/h (1 Bft) N-NO 20 0 min 0,000 mm 0 W/m 8,3 C 15,6 C 5,4 km/h (1 Bft) 0,00 %
13.06.2014 01:20 15,6 C 0,0 C 0,0 C 62 % 0 cb 1021,5 hPa 0,0 l/m 7,3 km/h (2 Bft) N-NW 345 0 min 0,000 mm 0 W/m 8,3 C 15,6 C 7,3 km/h (2 Bft) 0,00 %
13.06.2014 01:25 15,5 C 0,0 C 0,0 C 62 % 0 cb 1021,5 hPa 0,0 l/m 7,6 km/h (2 Bft) N-NW 330 0 min 0,000 mm 0 W/m 8,3 C 15,5 C 7,6 km/h (2 Bft) 0,00 %
13.06.2014 01:30 15,5 C 0,0 C 0,0 C 62 % 0 cb 1021,5 hPa 0,0 l/m 7,3 km/h (2 Bft) S-SW 210 0 min 0,000 mm 0 W/m 8,3 C 15,5 C 7,3 km/h (2 Bft) 0,00 %
13.06.2014 01:35 15,4 C 0,0 C 0,0 C 63 % 0 cb 1021,5 hPa 0,0 l/m 7,0 km/h (2 Bft) NO 35 0 min 0,000 mm 0 W/m 8,4 C 15,4 C 7,0 km/h (2 Bft) 0,00 %
13.06.2014 01:40 15,3 C 0,0 C 0,0 C 63 % 0 cb 1021,5 hPa 0,0 l/m 5,4 km/h (1 Bft) N-NO 20 0 min 0,000 mm 0 W/m 8,3 C 15,3 C 5,4 km/h (1 Bft) 0,00 %
13.06.2014 01:45 15,2 C 0,0 C 0,0 C 63 % 0 cb 1021,5 hPa 0,0 l/m 6,4 km/h (2 Bft) W-NW 290 0 min 0,000 mm 0 W/m 8,2 C 15,2 C 6,4 km/h (2 Bft) 0,00 %
13.06.2014 01:50 15,1 C 0,0 C 0,0 C 63 % 0 cb 1021,5 hPa 0,0 l/m 7,3 km/h (2 Bft) N-NO 15 0 min 0,000 mm 0 W/m 8,1 C 15,1 C 7,3 km/h (2 Bft) 0,00 %
13.06.2014 01:55 15,0 C 0,0 C 0,0 C 64 % 0 cb 1021,5 hPa 0,0 l/m 6,7 km/h (2 Bft) N 355 0 min 0,000 mm 0 W/m 8,2 C 15,0 C 6,7 km/h (2 Bft) 0,00 %
13.06.2014 02:00 14,8 C 0,0 C 0,0 C 64 % 0 cb 1021,5 hPa 0,0 l/m 6,1 km/h (2 Bft) N-NO 30 0 min 0,000 mm 0 W/m 8,1 C 14,8 C 6,1 km/h (2 Bft) 0,00 %
13.06.2014 02:05 14,8 C 0,0 C 0,0 C 65 % 0 cb 1021,5 hPa 0,0 l/m 7,3 km/h (2 Bft) N-NW 335 0 min 0,000 mm 0 W/m 8,3 C 14,8 C 7,3 km/h (2 Bft) 0,00 %
13.06.2014 02:10 14,8 C 0,0 C 0,0 C 65 % 0 cb 1021,5 hPa 0,0 l/m 8,5 km/h (2 Bft) N-NW 345 0 min 0,000 mm 0 W/m 8,3 C 14,8 C 8,5 km/h (2 Bft) 0,00 %
13.06.2014 02:15 14,6 C 0,0 C 0,0 C 65 % 0 cb 1022,5 hPa 0,0 l/m 7,3 km/h (2 Bft) N 350 0 min 0,000 mm 0 W/m 8,1 C 14,6 C 7,3 km/h (2 Bft) 0,00 %
13.06.2014 02:20 14,6 C 0,0 C 0,0 C 65 % 0 cb 1022,5 hPa 0,0 l/m 7,0 km/h (2 Bft) NO 35 0 min 0,000 mm 0 W/m 8,1 C 14,6 C 7,0 km/h (2 Bft) 0,00 %
13.06.2014 02:25 14,5 C 0,0 C 0,0 C 66 % 0 cb 1022,5 hPa 0,0 l/m 9,1 km/h (2 Bft) O-NO 70 0 min 0,000 mm 0 W/m 8,2 C 14,5 C 9,1 km/h (2 Bft) 0,00 %
13.06.2014 02:30 14,4 C 0,0 C 0,0 C 66 % 0 cb 1021,5 hPa 0,0 l/m 6,4 km/h (2 Bft) N-NO 20 0 min 0,000 mm 0 W/m 8,1 C 14,4 C 6,4 km/h (2 Bft) 0,00 %
13.06.2014 02:35 14,4 C 0,0 C 0,0 C 66 % 0 cb 1021,5 hPa 0,0 l/m 11,5 km/h (2 Bft) N-NW 345 0 min 0,000 mm 0 W/m 8,1 C 14,4 C 11,5 km/h (2 Bft) 0,00 %
13.06.2014 02:40 14,4 C 0,0 C 0,0 C 66 % 0 cb 1021,5 hPa 0,0 l/m 8,5 km/h (2 Bft) N-NO 30 0 min 0,000 mm 0 W/m 8,1 C 14,4 C 8,5 km/h (2 Bft) 0,00 %
13.06.2014 02:45 14,4 C 0,0 C 0,0 C 67 % 0 cb 1021,5 hPa 0,0 l/m 9,7 km/h (2 Bft) N 5 0 min 0,000 mm 0 W/m 8,4 C 14,4 C 9,7 km/h (2 Bft) 0,00 %
13.06.2014 02:50 14,2 C 0,0 C 0,0 C 67 % 0 cb 1021,5 hPa 0,0 l/m 9,7 km/h (2 Bft) N-NO 20 0 min 0,000 mm 0 W/m 8,2 C 14,2 C 9,7 km/h (2 Bft) 0,00 %
13.06.2014 02:55 14,1 C 0,0 C 0,0 C 67 % 0 cb 1021,5 hPa 0,0 l/m 9,1 km/h (2 Bft) N 0 0 min 0,000 mm 0 W/m 8,1 C 14,1 C 9,1 km/h (2 Bft) 0,00 %
13.06.2014 03:00 14,0 C 0,0 C 0,0 C 68 % 0 cb 1021,5 hPa 0,0 l/m 9,7 km/h (2 Bft) NO 45 0 min 0,000 mm 0 W/m 8,2 C 14,0 C 9,7 km/h (2 Bft) 0,00 %
13.06.2014 03:05 13,8 C 0,0 C 0,0 C 68 % 0 cb 1021,5 hPa 0,0 l/m 6,4 km/h (2 Bft) NO 45 0 min 0,000 mm 0 W/m 8,0 C 13,8 C 6,4 km/h (2 Bft) 0,00 %
13.06.2014 03:10 13,8 C 0,0 C 0,0 C 69 % 0 cb 1021,5 hPa 0,0 l/m 8,2 km/h (2 Bft) N 10 0 min 0,000 mm 0 W/m 8,2 C 13,8 C 8,2 km/h (2 Bft) 0,00 %
13.06.2014 03:15 13,7 C 0,0 C 0,0 C 69 % 0 cb 1021,5 hPa 0,0 l/m 10,3 km/h (2 Bft) N-NW 345 0 min 0,000 mm 0 W/m 8,1 C 13,7 C 10,3 km/h (2 Bft) 0,00 %
13.06.2014 03:20 13,6 C 0,0 C 0,0 C 69 % 0 cb 1021,5 hPa 0,0 l/m 9,7 km/h (2 Bft) W-NW 295 0 min 0,000 mm 0 W/m 8,0 C 13,6 C 9,7 km/h (2 Bft) 0,00 %
13.06.2014 03:25 13,5 C 0,0 C 0,0 C 69 % 0 cb 1021,5 hPa 0,0 l/m 7,0 km/h (2 Bft) NO 35 0 min 0,000 mm 0 W/m 7,9 C 13,5 C 7,0 km/h (2 Bft) 0,00 %
13.06.2014 03:30 13,5 C 0,0 C 0,0 C 70 % 0 cb 1021,5 hPa 0,0 l/m 11,2 km/h (2 Bft) NO 40 0 min 0,000 mm 0 W/m 8,1 C 13,5 C 11,2 km/h (2 Bft) 0,00 %
13.06.2014 03:35 13,4 C 0,0 C 0,0 C 70 % 0 cb 1021,5 hPa 0,0 l/m 5,7 km/h (1 Bft) N-NO 25 0 min 0,000 mm 0 W/m 8,0 C 13,4 C 5,7 km/h (1 Bft) 0,00 %
13.06.2014 03:40 13,3 C 0,0 C 0,0 C 70 % 0 cb 1021,5 hPa 0,0 l/m 6,1 km/h (2 Bft) N 5 0 min 0,000 mm 0 W/m 7,9 C 13,3 C 6,1 km/h (2 Bft) 0,00 %
13.06.2014 03:45 13,3 C 0,0 C 0,0 C 71 % 0 cb 1020,5 hPa 0,0 l/m 5,4 km/h (1 Bft) O-NO 75 0 min 0,000 mm 0 W/m 8,2 C 13,3 C 5,4 km/h (1 Bft) 0,00 %
13.06.2014 03:50 13,0 C 0,0 C 0,0 C 71 % 0 cb 1020,5 hPa 0,0 l/m 4,2 km/h (1 Bft) S 185 0 min 0,000 mm 0 W/m 7,9 C 13,0 C 4,2 km/h (1 Bft) 0,00 %
13.06.2014 03:55 13,0 C 0,0 C 0,0 C 71 % 0 cb 1020,5 hPa 0,0 l/m 6,4 km/h (2 Bft) N 10 0 min 0,000 mm 0 W/m 7,9 C 13,0 C 6,4 km/h (2 Bft) 0,00 %
13.06.2014 04:00 13,0 C 0,0 C 0,0 C 71 % 0 cb 1020,5 hPa 0,0 l/m 3,6 km/h (1 Bft) N 10 0 min 0,000 mm 0 W/m 7,9 C 13,0 C 3,6 km/h (1 Bft) 0,00 %
13.06.2014 04:05 13,0 C 0,0 C 0,0 C 72 % 0 cb 1020,5 hPa 0,0 l/m 6,7 km/h (2 Bft) NO 35 0 min 0,000 mm 0 W/m 8,1 C 13,0 C 6,7 km/h (2 Bft) 0,00 %
13.06.2014 04:10 13,1 C 0,0 C 0,0 C 72 % 0 cb 1020,5 hPa 0,0 l/m 4,8 km/h (1 Bft) NO 50 0 min 0,000 mm 0 W/m 8,2 C 13,1 C 4,8 km/h (1 Bft) 0,00 %
13.06.2014 04:15 13,1 C 0,0 C 0,0 C 71 % 0 cb 1020,5 hPa 0,0 l/m 3,9 km/h (1 Bft) NO 35 0 min 0,000 mm 0 W/m 8,0 C 13,1 C 3,9 km/h (1 Bft) 0,00 %
13.06.2014 04:20 13,1 C 0,0 C 0,0 C 71 % 0 cb 1020,5 hPa 0,0 l/m 6,1 km/h (2 Bft) N 355 0 min 0,000 mm 0 W/m 8,0 C 13,1 C 6,1 km/h (2 Bft) 0,00 %
13.06.2014 04:25 13,0 C 0,0 C 0,0 C 72 % 0 cb 1020,5 hPa 0,0 l/m 4,8 km/h (1 Bft) N 10 0 min 0,000 mm 0 W/m 8,1 C 13,0 C 4,8 km/h (1 Bft) 0,00 %
13.06.2014 04:30 12,8 C 0,0 C 0,0 C 73 % 0 cb 1020,5 hPa 0,0 l/m 3,6 km/h (1 Bft) N-NO 15 0 min 0,000 mm 0 W/m 8,1 C 12,8 C 3,6 km/h (1 Bft) 0,00 %
13.06.2014 04:35 12,7 C 0,0 C 0,0 C 73 % 0 cb 1020,5 hPa 0,0 l/m 4,8 km/h (1 Bft) S 175 0 min 0,000 mm 0 W/m 8,0 C 12,7 C 4,8 km/h (1 Bft) 0,00 %
13.06.2014 04:40 12,6 C 0,0 C 0,0 C 73 % 0 cb 1020,5 hPa 0,0 l/m 4,5 km/h (1 Bft) N-NW 340 0 min 0,000 mm 0 W/m 7,9 C 12,6 C 4,5 km/h (1 Bft) 0,00 %
13.06.2014 04:45 12,6 C 0,0 C 0,0 C 73 % 0 cb 1020,5 hPa 0,0 l/m 7,6 km/h (2 Bft) N 5 0 min 0,000 mm 0 W/m 7,9 C 12,6 C 7,6 km/h (2 Bft) 0,00 %
13.06.2014 04:50 12,5 C 0,0 C 0,0 C 73 % 0 cb 1020,5 hPa 0,0 l/m 4,2 km/h (1 Bft) N-NW 345 0 min 0,000 mm 0 W/m 7,8 C 12,5 C 4,2 km/h (1 Bft) 0,00 %
13.06.2014 04:55 12,4 C 0,0 C 0,0 C 74 % 0 cb 1020,5 hPa 0,0 l/m 2,7 km/h (1 Bft) SW 235 0 min 0,000 mm 0 W/m 7,9 C 12,4 C 2,7 km/h (1 Bft) 0,00 %
13.06.2014 05:00 12,3 C 0,0 C 0,0 C 74 % 0 cb 1020,5 hPa 0,0 l/m 3,3 km/h (1 Bft) N-NW 335 0 min 0,000 mm 0 W/m 7,8 C 12,3 C 3,3 km/h (1 Bft) 0,00 %
13.06.2014 05:05 12,4 C 0,0 C 0,0 C 74 % 0 cb 1020,5 hPa 0,0 l/m 6,1 km/h (2 Bft) N 355 0 min 0,000 mm 0 W/m 7,9 C 12,4 C 6,1 km/h (2 Bft) 0,00 %
13.06.2014 05:10 12,5 C 0,0 C 0,0 C 73 % 0 cb 1020,5 hPa 0,0 l/m 4,8 km/h (1 Bft) N-NO 20 0 min 0,000 mm 0 W/m 7,8 C 12,5 C 4,8 km/h (1 Bft) 0,00 %
13.06.2014 05:15 12,7 C 0,0 C 0,0 C 73 % 0 cb 1020,5 hPa 0,0 l/m 8,5 km/h (2 Bft) N 10 0 min 0,000 mm 0 W/m 8,0 C 12,7 C 8,5 km/h (2 Bft) 0,00 %
13.06.2014 05:20 12,5 C 0,0 C 0,0 C 73 % 0 cb 1020,5 hPa 0,0 l/m 4,5 km/h (1 Bft) W 270 0 min 0,000 mm 0 W/m 7,8 C 12,5 C 4,5 km/h (1 Bft) 0,00 %
13.06.2014 05:25 12,4 C 0,0 C 0,0 C 74 % 0 cb 1020,5 hPa 0,0 l/m 5,4 km/h (1 Bft) N 355 0 min 0,000 mm 0 W/m 7,9 C 12,4 C 5,4 km/h (1 Bft) 0,00 %
13.06.2014 05:30 12,4 C 0,0 C 0,0 C 74 % 0 cb 1020,5 hPa 0,0 l/m 5,1 km/h (1 Bft) N-NO 25 0 min 0,000 mm 0 W/m 7,9 C 12,4 C 5,1 km/h (1 Bft) 0,00 %
13.06.2014 05:35 12,4 C 0,0 C 0,0 C 74 % 0 cb 1020,5 hPa 0,0 l/m 5,1 km/h (1 Bft) NW 320 0 min 0,000 mm 0 W/m 7,9 C 12,4 C 5,1 km/h (1 Bft) 0,00 %
13.06.2014 05:40 12,2 C 0,0 C 0,0 C 74 % 0 cb 1020,5 hPa 0,0 l/m 4,5 km/h (1 Bft) NO 35 0 min 0,000 mm 0 W/m 7,7 C 12,2 C 4,5 km/h (1 Bft) 0,00 %
13.06.2014 05:45 12,2 C 0,0 C 0,0 C 74 % 0 cb 1020,5 hPa 0,0 l/m 5,7 km/h (1 Bft) NO 35 0 min 0,000 mm 0 W/m 7,7 C 12,2 C 5,7 km/h (1 Bft) 0,00 %
13.06.2014 05:50 12,4 C 0,0 C 0,0 C 74 % 0 cb 1020,5 hPa 0,0 l/m 9,1 km/h (2 Bft) O 85 0 min 0,000 mm 0 W/m 7,9 C 12,4 C 9,1 km/h (2 Bft) 0,00 %
13.06.2014 05:55 12,6 C 0,0 C 0,0 C 73 % 0 cb 1020,5 hPa 0,0 l/m 7,0 km/h (2 Bft) W 270 0 min 0,000 mm 0 W/m 7,9 C 12,6 C 7,0 km/h (2 Bft) 0,00 %
13.06.2014 06:00 12,5 C 0,0 C 0,0 C 73 % 0 cb 1020,5 hPa 0,0 l/m 6,7 km/h (2 Bft) N-NW 335 0 min 0,000 mm 0 W/m 7,8 C 12,5 C 6,7 km/h (2 Bft) 0,00 %
13.06.2014 06:05 12,5 C 0,0 C 0,0 C 73 % 0 cb 1020,5 hPa 0,0 l/m 6,1 km/h (2 Bft) N 10 0 min 0,000 mm 0 W/m 7,8 C 12,5 C 6,1 km/h (2 Bft) 0,00 %
13.06.2014 06:10 12,6 C 0,0 C 0,0 C 73 % 0 cb 1020,5 hPa 0,0 l/m 6,1 km/h (2 Bft) N-NW 335 0 min 0,000 mm 0 W/m 7,9 C 12,6 C 6,1 km/h (2 Bft) 0,00 %
13.06.2014 06:15 12,6 C 0,0 C 0,0 C 73 % 0 cb 1020,5 hPa 0,0 l/m 8,2 km/h (2 Bft) N 350 0 min 0,000 mm 0 W/m 7,9 C 12,6 C 8,2 km/h (2 Bft) 0,00 %
13.06.2014 06:20 12,8 C 0,0 C 0,0 C 73 % 0 cb 1020,5 hPa 0,0 l/m 7,0 km/h (2 Bft) NO 45 0 min 0,000 mm 0 W/m 8,1 C 12,8 C 7,0 km/h (2 Bft) 0,00 %
13.06.2014 06:25 12,7 C 0,0 C 0,0 C 73 % 0 cb 1020,5 hPa 0,0 l/m 6,4 km/h (2 Bft) N-NO 30 0 min 0,000 mm 0 W/m 8,0 C 12,7 C 6,4 km/h (2 Bft) 0,00 %
13.06.2014 06:30 12,8 C 0,0 C 0,0 C 73 % 0 cb 1020,5 hPa 0,0 l/m 8,8 km/h (2 Bft) N-NO 25 0 min 0,000 mm 0 W/m 8,1 C 12,8 C 8,8 km/h (2 Bft) 0,00 %
13.06.2014 06:35 12,8 C 0,0 C 0,0 C 73 % 0 cb 1020,5 hPa 0,0 l/m 7,6 km/h (2 Bft) N 350 0 min 0,000 mm 0 W/m 8,1 C 12,8 C 7,6 km/h (2 Bft) 0,00 %
13.06.2014 06:40 13,0 C 0,0 C 0,0 C 73 % 0 cb 1020,5 hPa 0,0 l/m 6,1 km/h (2 Bft) NW 310 0 min 0,000 mm 0 W/m 8,3 C 13,0 C 6,1 km/h (2 Bft) 0,00 %
13.06.2014 06:45 13,2 C 0,0 C 0,0 C 72 % 0 cb 1020,5 hPa 0,0 l/m 10,0 km/h (2 Bft) NW 315 0 min 0,000 mm 0 W/m 8,3 C 13,2 C 10,0 km/h (2 Bft) 0,00 %
13.06.2014 06:50 13,2 C 0,0 C 0,0 C 72 % 0 cb 1020,5 hPa 0,0 l/m 7,3 km/h (2 Bft) W 280 0 min 0,000 mm 0 W/m 8,3 C 13,2 C 7,3 km/h (2 Bft) 0,00 %
13.06.2014 06:55 13,3 C 0,0 C 0,0 C 72 % 0 cb 1020,5 hPa 0,0 l/m 9,1 km/h (2 Bft) N 5 0 min 0,000 mm 0 W/m 8,4 C 13,3 C 9,1 km/h (2 Bft) 0,00 %
13.06.2014 07:00 13,6 C 0,0 C 0,0 C 72 % 0 cb 1020,5 hPa 0,0 l/m 10,0 km/h (2 Bft) O 85 0 min 0,000 mm 0 W/m 8,6 C 13,6 C 10,0 km/h (2 Bft) 0,00 %
13.06.2014 07:05 13,8 C 0,0 C 0,0 C 71 % 1 cb 1020,5 hPa 0,0 l/m 7,3 km/h (2 Bft) N 10 0 min 0,000 mm 0 W/m 8,6 C 13,8 C 7,3 km/h (2 Bft) 0,00 %
13.06.2014 07:10 14,0 C 0,0 C 0,0 C 70 % 4 cb 1020,5 hPa 0,0 l/m 9,4 km/h (2 Bft) NO 45 0 min 0,000 mm 0 W/m 8,6 C 14,0 C 9,4 km/h (2 Bft) 0,00 %
13.06.2014 07:15 14,0 C 0,0 C 0,0 C 70 % 0 cb 1020,5 hPa 0,0 l/m 5,4 km/h (1 Bft) N 5 0 min 0,000 mm 0 W/m 8,6 C 14,0 C 5,4 km/h (1 Bft) 0,00 %
13.06.2014 07:20 14,2 C 0,0 C 0,0 C 70 % 0 cb 1020,5 hPa 0,0 l/m 10,0 km/h (2 Bft) O-NO 60 0 min 0,000 mm 0 W/m 8,8 C 14,2 C 10,0 km/h (2 Bft) 0,00 %
13.06.2014 07:25 14,3 C 0,0 C 0,0 C 69 % 5 cb 1020,5 hPa 0,0 l/m 9,1 km/h (2 Bft) N-NW 330 0 min 0,000 mm 0 W/m 8,7 C 14,3 C 9,1 km/h (2 Bft) 0,00 %
13.06.2014 07:30 14,6 C 0,0 C 0,0 C 69 % 6 cb 1020,5 hPa 0,0 l/m 8,2 km/h (2 Bft) N 350 0 min 0,000 mm 0 W/m 9,0 C 14,6 C 8,2 km/h (2 Bft) 0,00 %
13.06.2014 07:35 14,8 C 0,0 C 0,0 C 68 % 3 cb 1020,5 hPa 0,0 l/m 9,4 km/h (2 Bft) N-NO 25 0 min 0,000 mm 0 W/m 9,0 C 14,8 C 9,4 km/h (2 Bft) 0,00 %
13.06.2014 07:40 15,0 C 0,0 C 0,0 C 68 % 3 cb 1020,5 hPa 0,0 l/m 8,8 km/h (2 Bft) NO 40 0 min 0,000 mm 0 W/m 9,1 C 15,0 C 8,8 km/h (2 Bft) 0,00 %
13.06.2014 07:45 15,0 C 0,0 C 0,0 C 68 % 4 cb 1020,5 hPa 0,0 l/m 9,7 km/h (2 Bft) N 10 0 min 0,000 mm 0 W/m 9,1 C 15,0 C 9,7 km/h (2 Bft) 0,00 %
13.06.2014 07:50 15,1 C 0,0 C 0,0 C 67 % 2 cb 1020,5 hPa 0,0 l/m 10,0 km/h (2 Bft) N-NO 15 0 min 0,000 mm 0 W/m 9,0 C 15,1 C 10,0 km/h (2 Bft) 0,00 %
13.06.2014 07:55 15,3 C 0,0 C 0,0 C 67 % 6 cb 1020,5 hPa 0,0 l/m 10,9 km/h (2 Bft) N 0 0 min 0,000 mm 0 W/m 9,2 C 15,3 C 10,9 km/h (2 Bft) 0,00 %
13.06.2014 08:00 15,6 C 0,0 C 0,0 C 66 % 4 cb 1020,5 hPa 0,0 l/m 9,1 km/h (2 Bft) NO 50 0 min 0,000 mm 0 W/m 9,3 C 15,6 C 9,1 km/h (2 Bft) 0,00 %
13.06.2014 08:05 15,9 C 0,0 C 0,0 C 65 % 6 cb 1020,5 hPa 0,0 l/m 10,9 km/h (2 Bft) N 5 0 min 0,000 mm 0 W/m 9,3 C 15,9 C 10,9 km/h (2 Bft) 0,00 %
13.06.2014 08:10 16,2 C 0,0 C 0,0 C 65 % 5 cb 1020,5 hPa 0,0 l/m 6,7 km/h (2 Bft) N-NO 30 0 min 0,000 mm 0 W/m 9,6 C 16,2 C 6,7 km/h (2 Bft) 0,00 %
13.06.2014 08:15 16,3 C 0,0 C 0,0 C 64 % 5 cb 1020,5 hPa 0,0 l/m 11,5 km/h (2 Bft) NO 45 0 min 0,000 mm 0 W/m 9,5 C 16,3 C 11,5 km/h (2 Bft) 0,00 %
13.06.2014 08:20 16,6 C 0,0 C 0,0 C 64 % 5 cb 1020,5 hPa 0,0 l/m 6,7 km/h (2 Bft) O-SO 105 0 min 0,000 mm 0 W/m 9,8 C 16,6 C 6,7 km/h (2 Bft) 0,00 %
13.06.2014 08:25 16,8 C 0,0 C 0,0 C 63 % 5 cb 1020,5 hPa 0,0 l/m 6,4 km/h (2 Bft) N-NO 20 0 min 0,000 mm 0 W/m 9,7 C 16,8 C 6,4 km/h (2 Bft) 0,00 %
13.06.2014 08:30 16,6 C 0,0 C 0,0 C 62 % 6 cb 1020,5 hPa 0,0 l/m 12,7 km/h (3 Bft) N-NW 335 0 min 0,000 mm 0 W/m 9,3 C 16,6 C 12,7 km/h (3 Bft) 0,00 %
13.06.2014 08:35 16,9 C 0,0 C 0,0 C 62 % 4 cb 1020,5 hPa 0,0 l/m 6,1 km/h (2 Bft) N-NO 30 0 min 0,000 mm 0 W/m 9,6 C 16,9 C 6,1 km/h (2 Bft) 0,00 %
13.06.2014 08:40 17,1 C 0,0 C 0,0 C 62 % 5 cb 1020,5 hPa 0,0 l/m 6,4 km/h (2 Bft) N 0 0 min 0,000 mm 0 W/m 9,8 C 17,1 C 6,4 km/h (2 Bft) 0,00 %
13.06.2014 08:45 17,5 C 0,0 C 0,0 C 62 % 5 cb 1020,5 hPa 0,0 l/m 5,1 km/h (1 Bft) W-NW 300 0 min 0,000 mm 0 W/m 10,1 C 17,5 C 5,1 km/h (1 Bft) 0,00 %
13.06.2014 08:50 17,4 C 0,0 C 0,0 C 62 % 6 cb 1020,5 hPa 0,0 l/m 9,7 km/h (2 Bft) N-NW 340 0 min 0,000 mm 0 W/m 10,0 C 17,4 C 9,7 km/h (2 Bft) 0,00 %
13.06.2014 08:55 17,6 C 0,0 C 0,0 C 62 % 4 cb 1020,5 hPa 0,0 l/m 11,5 km/h (2 Bft) W-NW 285 0 min 0,000 mm 0 W/m 10,2 C 17,6 C 11,5 km/h (2 Bft) 0,00 %
13.06.2014 09:00 17,8 C 0,0 C 0,0 C 60 % 5 cb 1020,5 hPa 0,0 l/m 10,3 km/h (2 Bft) O-NO 75 0 min 0,000 mm 0 W/m 9,9 C 17,8 C 10,3 km/h (2 Bft) 0,00 %
13.06.2014 09:05 17,8 C 0,0 C 0,0 C 61 % 5 cb 1020,5 hPa 0,0 l/m 7,0 km/h (2 Bft) N 10 0 min 0,000 mm 0 W/m 10,2 C 17,8 C 7,0 km/h (2 Bft) 0,00 %
13.06.2014 09:10 17,8 C 0,0 C 0,0 C 61 % 5 cb 1020,5 hPa 0,0 l/m 8,8 km/h (2 Bft) NO 45 0 min 0,000 mm 0 W/m 10,2 C 17,8 C 8,8 km/h (2 Bft) 0,00 %
13.06.2014 09:15 18,2 C 0,0 C 0,0 C 61 % 5 cb 1020,5 hPa 0,0 l/m 6,4 km/h (2 Bft) N-NW 340 0 min 0,000 mm 0 W/m 10,6 C 18,2 C 6,4 km/h (2 Bft) 0,00 %
13.06.2014 09:20 19,0 C 0,0 C 0,0 C 60 % 6 cb 1020,5 hPa 0,0 l/m 8,5 km/h (2 Bft) O-NO 60 0 min 0,000 mm 0 W/m 11,1 C 19,0 C 8,5 km/h (2 Bft) 0,00 %
13.06.2014 09:25 19,0 C 0,0 C 0,0 C 59 % 5 cb 1020,5 hPa 0,0 l/m 10,3 km/h (2 Bft) N-NW 335 0 min 0,000 mm 0 W/m 10,8 C 19,0 C 10,3 km/h (2 Bft) 0,00 %
13.06.2014 09:30 18,9 C 0,0 C 0,0 C 59 % 4 cb 1020,5 hPa 0,0 l/m 6,1 km/h (2 Bft) O-NO 75 0 min 0,000 mm 0 W/m 10,7 C 18,9 C 6,1 km/h (2 Bft) 0,00 %
13.06.2014 09:35 19,6 C 0,0 C 0,0 C 59 % 6 cb 1020,5 hPa 0,0 l/m 4,8 km/h (1 Bft) O-NO 60 0 min 0,000 mm 0 W/m 11,4 C 19,6 C 4,8 km/h (1 Bft) 0,00 %
13.06.2014 09:40 19,5 C 0,0 C 0,0 C 58 % 5 cb 1020,5 hPa 0,0 l/m 7,0 km/h (2 Bft) N-NO 20 0 min 0,000 mm 0 W/m 11,0 C 19,5 C 7,0 km/h (2 Bft) 0,00 %
13.06.2014 09:45 19,7 C 0,0 C 0,0 C 56 % 5 cb 1020,5 hPa 0,0 l/m 9,1 km/h (2 Bft) NO 50 0 min 0,000 mm 0 W/m 10,7 C 19,7 C 9,1 km/h (2 Bft) 0,00 %
13.06.2014 09:50 19,9 C 0,0 C 0,0 C 55 % 5 cb 1020,5 hPa 0,0 l/m 7,6 km/h (2 Bft) W-NW 300 0 min 0,000 mm 0 W/m 10,6 C 19,9 C 7,6 km/h (2 Bft) 0,00 %
13.06.2014 09:55 19,9 C 0,0 C 0,0 C 54 % 5 cb 1020,5 hPa 0,0 l/m 8,8 km/h (2 Bft) N 0 0 min 0,000 mm 0 W/m 10,3 C 19,9 C 8,8 km/h (2 Bft) 0,00 %
13.06.2014 10:00 19,8 C 0,0 C 0,0 C 54 % 5 cb 1020,5 hPa 0,0 l/m 8,5 km/h (2 Bft) NO 35 0 min 0,000 mm 0 W/m 10,2 C 19,8 C 8,5 km/h (2 Bft) 0,00 %
13.06.2014 10:05 19,4 C 0,0 C 0,0 C 53 % 5 cb 1020,5 hPa 0,0 l/m 14,5 km/h (3 Bft) W 270 0 min 0,000 mm 0 W/m 9,6 C 19,4 C 14,5 km/h (3 Bft) 0,00 %
13.06.2014 10:10 20,1 C 0,0 C 0,0 C 53 % 5 cb 1020,5 hPa 0,0 l/m 9,4 km/h (2 Bft) N-NW 330 0 min 0,000 mm 0 W/m 10,2 C 20,1 C 9,4 km/h (2 Bft) 0,00 %
13.06.2014 10:15 20,3 C 0,0 C 0,0 C 53 % 5 cb 1020,5 hPa 0,0 l/m 5,4 km/h (1 Bft) O-NO 70 0 min 0,000 mm 0 W/m 10,4 C 20,3 C 5,4 km/h (1 Bft) 0,00 %
13.06.2014 10:20 20,3 C 0,0 C 0,0 C 52 % 5 cb 1020,5 hPa 0,0 l/m 10,0 km/h (2 Bft) NO 55 0 min 0,000 mm 0 W/m 10,1 C 20,3 C 10,0 km/h (2 Bft) 0,00 %
13.06.2014 10:25 20,3 C 0,0 C 0,0 C 51 % 5 cb 1020,5 hPa 0,0 l/m 10,6 km/h (2 Bft) N 10 0 min 0,000 mm 0 W/m 9,8 C 20,3 C 10,6 km/h (2 Bft) 0,00 %
13.06.2014 10:30 20,4 C 0,0 C 0,0 C 50 % 5 cb 1020,5 hPa 0,0 l/m 7,6 km/h (2 Bft) N-NO 20 0 min 0,000 mm 0 W/m 9,6 C 20,4 C 7,6 km/h (2 Bft) 0,00 %
13.06.2014 10:35 20,5 C 0,0 C 0,0 C 52 % 5 cb 1020,5 hPa 0,0 l/m 9,1 km/h (2 Bft) NO 45 0 min 0,000 mm 0 W/m 10,3 C 20,5 C 9,1 km/h (2 Bft) 0,00 %
13.06.2014 10:40 20,4 C 0,0 C 0,0 C 52 % 3 cb 1020,5 hPa 0,0 l/m 10,0 km/h (2 Bft) O 90 0 min 0,000 mm 0 W/m 10,2 C 20,4 C 10,0 km/h (2 Bft) 0,00 %
13.06.2014 10:45 21,0 C 0,0 C 0,0 C 52 % 8 cb 1020,5 hPa 0,0 l/m 6,7 km/h (2 Bft) N 10 0 min 0,000 mm 0 W/m 10,8 C 21,0 C 6,7 km/h (2 Bft) 0,00 %
13.06.2014 10:50 21,0 C 0,0 C 0,0 C 51 % 5 cb 1020,5 hPa 0,0 l/m 6,7 km/h (2 Bft) N-NO 25 0 min 0,000 mm 0 W/m 10,5 C 21,0 C 6,7 km/h (2 Bft) 0,00 %
13.06.2014 10:55 21,2 C 0,0 C 0,0 C 51 % 3 cb 1020,5 hPa 0,0 l/m 6,7 km/h (2 Bft) O 90 0 min 0,000 mm 0 W/m 10,7 C 21,2 C 6,7 km/h (2 Bft) 0,00 %
13.06.2014 11:00 21,3 C 0,0 C 0,0 C 51 % 5 cb 1020,5 hPa 0,0 l/m 10,0 km/h (2 Bft) NW 320 0 min 0,000 mm 0 W/m 10,7 C 21,3 C 10,0 km/h (2 Bft) 0,00 %
13.06.2014 11:05 21,8 C 0,0 C 0,0 C 52 % 6 cb 1020,5 hPa 0,0 l/m 5,4 km/h (1 Bft) NW 325 0 min 0,000 mm 0 W/m 11,5 C 21,8 C 5,4 km/h (1 Bft) 0,00 %
13.06.2014 11:10 21,6 C 0,0 C 0,0 C 50 % 5 cb 1020,5 hPa 0,0 l/m 5,4 km/h (1 Bft) N-NW 345 0 min 0,000 mm 0 W/m 10,7 C 21,6 C 5,4 km/h (1 Bft) 0,00 %
13.06.2014 11:15 21,6 C 0,0 C 0,0 C 49 % 5 cb 1020,5 hPa 0,0 l/m 10,0 km/h (2 Bft) O 95 0 min 0,000 mm 0 W/m 10,4 C 21,6 C 10,0 km/h (2 Bft) 0,00 %
13.06.2014 11:20 21,6 C 0,0 C 0,0 C 49 % 5 cb 1020,5 hPa 0,0 l/m 13,6 km/h (3 Bft) O-NO 75 0 min 0,000 mm 0 W/m 10,4 C 21,6 C 13,6 km/h (3 Bft) 0,00 %
13.06.2014 11:25 22,0 C 0,0 C 0,0 C 49 % 5 cb 1020,5 hPa 0,0 l/m 7,9 km/h (2 Bft) SO 140 0 min 0,000 mm 0 W/m 10,8 C 22,0 C 7,9 km/h (2 Bft) 0,00 %
13.06.2014 11:30 22,0 C 0,0 C 0,0 C 48 % 5 cb 1020,5 hPa 0,0 l/m 5,7 km/h (1 Bft) S 185 0 min 0,000 mm 0 W/m 10,5 C 22,0 C 5,7 km/h (1 Bft) 0,00 %
13.06.2014 11:35 21,8 C 0,0 C 0,0 C 47 % 4 cb 1020,5 hPa 0,0 l/m 10,6 km/h (2 Bft) SO 130 0 min 0,000 mm 0 W/m 10,0 C 21,8 C 10,6 km/h (2 Bft) 0,00 %
13.06.2014 11:40 22,4 C 0,0 C 0,0 C 47 % 6 cb 1020,5 hPa 0,0 l/m 12,1 km/h (2 Bft) N-NO 25 0 min 0,000 mm 0 W/m 10,5 C 22,4 C 12,1 km/h (2 Bft) 0,00 %
13.06.2014 11:45 22,4 C 0,0 C 0,0 C 49 % 4 cb 1019,5 hPa 0,0 l/m 6,1 km/h (2 Bft) W-NW 300 0 min 0,000 mm 0 W/m 11,2 C 22,4 C 6,1 km/h (2 Bft) 0,00 %
13.06.2014 11:50 22,2 C 0,0 C 0,0 C 46 % 6 cb 1019,5 hPa 0,0 l/m 11,5 km/h (2 Bft) O 100 0 min 0,000 mm 0 W/m 10,0 C 22,2 C 11,5 km/h (2 Bft) 0,00 %
13.06.2014 11:55 22,6 C 0,0 C 0,0 C 46 % 5 cb 1019,5 hPa 0,0 l/m 9,1 km/h (2 Bft) N 355 0 min 0,000 mm 0 W/m 10,4 C 22,6 C 9,1 km/h (2 Bft) 0,00 %
13.06.2014 12:00 22,3 C 0,0 C 0,0 C 46 % 5 cb 1020,5 hPa 0,0 l/m 9,1 km/h (2 Bft) N 0 0 min 0,000 mm 0 W/m 10,1 C 22,3 C 9,1 km/h (2 Bft) 0,00 %
13.06.2014 12:05 22,4 C 0,0 C 0,0 C 46 % 5 cb 1020,5 hPa 0,0 l/m 11,2 km/h (2 Bft) N 0 0 min 0,000 mm 0 W/m 10,2 C 22,4 C 11,2 km/h (2 Bft) 0,00 %
13.06.2014 12:10 22,6 C 0,0 C 0,0 C 46 % 5 cb 1020,5 hPa 0,0 l/m 5,7 km/h (1 Bft) W-SW 240 0 min 0,000 mm 0 W/m 10,4 C 22,6 C 5,7 km/h (1 Bft) 0,00 %
13.06.2014 12:15 23,4 C 0,0 C 0,0 C 45 % 5 cb 1020,5 hPa 0,0 l/m 6,1 km/h (2 Bft) SW 220 0 min 0,000 mm 0 W/m 10,8 C 23,4 C 6,1 km/h (2 Bft) 0,00 %
13.06.2014 12:20 23,1 C 0,0 C 0,0 C 44 % 5 cb 1020,5 hPa 0,0 l/m 14,2 km/h (3 Bft) O 85 0 min 0,000 mm 0 W/m 10,2 C 23,1 C 14,2 km/h (3 Bft) 0,00 %
13.06.2014 12:25 23,3 C 0,0 C 0,0 C 44 % 5 cb 1020,5 hPa 0,0 l/m 4,8 km/h (1 Bft) O 80 0 min 0,000 mm 0 W/m 10,4 C 23,3 C 4,8 km/h (1 Bft) 0,00 %
13.06.2014 12:30 22,9 C 0,0 C 0,0 C 42 % 6 cb 1020,5 hPa 0,0 l/m 8,5 km/h (2 Bft) NO 45 0 min 0,000 mm 0 W/m 9,3 C 22,9 C 8,5 km/h (2 Bft) 0,00 %
13.06.2014 12:35 23,3 C 0,0 C 0,0 C 42 % 5 cb 1020,5 hPa 0,0 l/m 6,7 km/h (2 Bft) W 280 0 min 0,000 mm 0 W/m 9,7 C 23,3 C 6,7 km/h (2 Bft) 0,00 %
13.06.2014 12:40 24,0 C 0,0 C 0,0 C 43 % 5 cb 1020,5 hPa 0,0 l/m 7,3 km/h (2 Bft) W 270 0 min 0,000 mm 0 W/m 10,6 C 24,0 C 7,3 km/h (2 Bft) 0,00 %
13.06.2014 12:45 24,3 C 0,0 C 0,0 C 42 % 5 cb 1019,5 hPa 0,0 l/m 4,2 km/h (1 Bft) N-NO 20 0 min 0,000 mm 0 W/m 10,6 C 24,3 C 4,2 km/h (1 Bft) 0,00 %
13.06.2014 12:50 23,7 C 0,0 C 0,0 C 41 % 5 cb 1019,5 hPa 0,0 l/m 11,5 km/h (2 Bft) O-SO 115 0 min 0,000 mm 0 W/m 9,7 C 23,7 C 11,5 km/h (2 Bft) 0,00 %
13.06.2014 12:55 23,7 C 0,0 C 0,0 C 41 % 5 cb 1019,5 hPa 0,0 l/m 8,5 km/h (2 Bft) NW 325 0 min 0,000 mm 0 W/m 9,7 C 23,7 C 8,5 km/h (2 Bft) 0,00 %
13.06.2014 13:00 24,0 C 0,0 C 0,0 C 40 % 5 cb 1019,5 hPa 0,0 l/m 8,8 km/h (2 Bft) NW 325 0 min 0,000 mm 0 W/m 9,6 C 24,0 C 8,8 km/h (2 Bft) 0,00 %
13.06.2014 13:05 24,6 C 0,0 C 0,0 C 39 % 5 cb 1019,5 hPa 0,0 l/m 3,6 km/h (1 Bft) N 350 0 min 0,000 mm 0 W/m 9,7 C 24,6 C 3,6 km/h (1 Bft) 0,00 %
13.06.2014 13:10 24,2 C 0,0 C 0,0 C 40 % 5 cb 1019,5 hPa 0,0 l/m 7,9 km/h (2 Bft) NO 55 0 min 0,000 mm 0 W/m 9,7 C 24,2 C 7,9 km/h (2 Bft) 0,00 %
13.06.2014 13:15 25,0 C 0,0 C 0,0 C 40 % 6 cb 1019,5 hPa 0,0 l/m 7,3 km/h (2 Bft) N-NW 345 0 min 0,000 mm 0 W/m 10,4 C 25,0 C 7,3 km/h (2 Bft) 0,00 %
13.06.2014 13:20 24,2 C 0,0 C 0,0 C 40 % 4 cb 1019,5 hPa 0,0 l/m 13,3 km/h (3 Bft) N-NW 335 0 min 0,000 mm 0 W/m 9,7 C 24,2 C 13,3 km/h (3 Bft) 0,00 %
13.06.2014 13:25 24,4 C 0,0 C 0,0 C 40 % 5 cb 1019,5 hPa 0,0 l/m 9,4 km/h (2 Bft) NO 55 0 min 0,000 mm 0 W/m 9,9 C 24,4 C 9,4 km/h (2 Bft) 0,00 %
13.06.2014 13:30 24,1 C 0,0 C 0,0 C 41 % 5 cb 1019,5 hPa 0,0 l/m 11,2 km/h (2 Bft) W 275 0 min 0,000 mm 0 W/m 10,0 C 24,1 C 11,2 km/h (2 Bft) 0,00 %
13.06.2014 13:35 24,7 C 0,0 C 0,0 C 39 % 5 cb 1019,5 hPa 0,0 l/m 10,3 km/h (2 Bft) NO 35 0 min 0,000 mm 0 W/m 9,8 C 24,7 C 10,3 km/h (2 Bft) 0,00 %
13.06.2014 13:40 24,6 C 0,0 C 0,0 C 42 % 3 cb 1019,5 hPa 0,0 l/m 8,8 km/h (2 Bft) N-NO 15 0 min 0,000 mm 0 W/m 10,8 C 24,6 C 8,8 km/h (2 Bft) 0,00 %
13.06.2014 13:45 24,2 C 0,0 C 0,0 C 41 % 7 cb 1019,5 hPa 0,0 l/m 15,1 km/h (3 Bft) W-NW 295 0 min 0,000 mm 0 W/m 10,1 C 24,2 C 15,1 km/h (3 Bft) 0,00 %
13.06.2014 13:50 24,5 C 0,0 C 0,0 C 41 % 5 cb 1019,5 hPa 0,0 l/m 8,8 km/h (2 Bft) N-NW 345 0 min 0,000 mm 0 W/m 10,4 C 24,5 C 8,8 km/h (2 Bft) 0,00 %
13.06.2014 13:55 25,0 C 0,0 C 0,0 C 40 % 5 cb 1019,5 hPa 0,0 l/m 6,1 km/h (2 Bft) NW 310 0 min 0,000 mm 0 W/m 10,4 C 25,0 C 6,1 km/h (2 Bft) 0,00 %
13.06.2014 14:00 25,0 C 0,0 C 0,0 C 39 % 5 cb 1019,5 hPa 0,0 l/m 10,6 km/h (2 Bft) NO 50 0 min 0,000 mm 0 W/m 10,1 C 25,0 C 10,6 km/h (2 Bft) 0,00 %
13.06.2014 14:05 25,0 C 0,0 C 0,0 C 40 % 5 cb 1019,5 hPa 0,0 l/m 9,7 km/h (2 Bft) S 180 0 min 0,000 mm 0 W/m 10,4 C 25,0 C 9,7 km/h (2 Bft) 0,00 %
13.06.2014 14:10 25,4 C 0,0 C 0,0 C 40 % 3 cb 1019,5 hPa 0,0 l/m 9,7 km/h (2 Bft) SO 135 0 min 0,000 mm 0 W/m 10,8 C 25,4 C 9,7 km/h (2 Bft) 0,00 %
13.06.2014 14:15 25,5 C 0,0 C 0,0 C 39 % 6 cb 1019,5 hPa 0,0 l/m 9,7 km/h (2 Bft) W-SW 255 0 min 0,000 mm 0 W/m 10,5 C 25,5 C 9,7 km/h (2 Bft) 0,00 %
13.06.2014 14:20 25,4 C 0,0 C 0,0 C 38 % 4 cb 1019,5 hPa 0,0 l/m 12,7 km/h (3 Bft) N 5 0 min 0,000 mm 0 W/m 10,0 C 25,4 C 12,7 km/h (3 Bft) 0,00 %
13.06.2014 14:25 25,3 C 0,0 C 0,0 C 39 % 6 cb 1019,5 hPa 0,0 l/m 9,1 km/h (2 Bft) N-NW 340 0 min 0,000 mm 0 W/m 10,3 C 25,3 C 9,1 km/h (2 Bft) 0,00 %
13.06.2014 14:30 24,8 C 0,0 C 0,0 C 40 % 4 cb 1019,5 hPa 0,0 l/m 7,9 km/h (2 Bft) O 95 0 min 0,000 mm 0 W/m 10,3 C 24,8 C 7,9 km/h (2 Bft) 0,00 %
13.06.2014 14:35 25,0 C 0,0 C 0,0 C 40 % 6 cb 1019,5 hPa 0,0 l/m 10,9 km/h (2 Bft) SO 140 0 min 0,000 mm 0 W/m 10,4 C 25,0 C 10,9 km/h (2 Bft) 0,00 %
13.06.2014 14:40 25,4 C 0,0 C 0,0 C 39 % 5 cb 1019,5 hPa 0,0 l/m 13,3 km/h (3 Bft) N-NW 345 0 min 0,000 mm 0 W/m 10,4 C 25,4 C 13,3 km/h (3 Bft) 0,00 %
13.06.2014 14:45 24,9 C 0,0 C 0,0 C 40 % 5 cb 1019,5 hPa 0,0 l/m 10,0 km/h (2 Bft) S-SW 205 0 min 0,000 mm 0 W/m 10,4 C 24,9 C 10,0 km/h (2 Bft) 0,00 %
13.06.2014 14:50 23,8 C 0,0 C 0,0 C 41 % 5 cb 1019,5 hPa 0,0 l/m 13,0 km/h (3 Bft) S 185 0 min 0,000 mm 0 W/m 9,7 C 23,8 C 13,0 km/h (3 Bft) 0,00 %
13.06.2014 14:55 23,4 C 0,0 C 0,0 C 41 % 5 cb 1019,5 hPa 0,0 l/m 13,0 km/h (3 Bft) NW 310 0 min 0,000 mm 0 W/m 9,4 C 23,4 C 13,0 km/h (3 Bft) 0,00 %
13.06.2014 15:00 23,9 C 0,0 C 0,0 C 41 % 5 cb 1019,5 hPa 0,0 l/m 7,3 km/h (2 Bft) N-NO 15 0 min 0,000 mm 0 W/m 9,8 C 23,9 C 7,3 km/h (2 Bft) 0,00 %
13.06.2014 15:05 24,0 C 0,0 C 0,0 C 41 % 4 cb 1019,5 hPa 0,0 l/m 9,1 km/h (2 Bft) NO 35 0 min 0,000 mm 0 W/m 9,9 C 24,0 C 9,1 km/h (2 Bft) 0,00 %
13.06.2014 15:10 24,5 C 0,0 C 0,0 C 39 % 6 cb 1019,5 hPa 0,0 l/m 9,7 km/h (2 Bft) W-NW 295 0 min 0,000 mm 0 W/m 9,6 C 24,5 C 9,7 km/h (2 Bft) 0,00 %
13.06.2014 15:15 23,9 C 0,0 C 0,0 C 39 % 5 cb 1018,5 hPa 0,0 l/m 15,1 km/h (3 Bft) W 280 0 min 0,000 mm 0 W/m 9,1 C 23,9 C 15,1 km/h (3 Bft) 0,00 %
13.06.2014 15:20 24,8 C 0,0 C 0,0 C 40 % 6 cb 1018,5 hPa 0,0 l/m 11,2 km/h (2 Bft) O 85 0 min 0,000 mm 0 W/m 10,3 C 24,8 C 11,2 km/h (2 Bft) 0,00 %
13.06.2014 15:25 25,4 C 0,0 C 0,0 C 39 % 5 cb 1018,5 hPa 0,0 l/m 9,1 km/h (2 Bft) S-SW 210 0 min 0,000 mm 0 W/m 10,4 C 25,4 C 9,1 km/h (2 Bft) 0,00 %
13.06.2014 15:30 24,5 C 0,0 C 0,0 C 39 % 5 cb 1018,5 hPa 0,0 l/m 18,2 km/h (3 Bft) NO 35 0 min 0,000 mm 0 W/m 9,6 C 24,5 C 18,2 km/h (3 Bft) 0,00 %
13.06.2014 15:35 24,5 C 0,0 C 0,0 C 39 % 5 cb 1018,5 hPa 0,0 l/m 11,8 km/h (2 Bft) W 275 0 min 0,000 mm 0 W/m 9,6 C 24,5 C 11,8 km/h (2 Bft) 0,00 %
13.06.2014 15:40 24,6 C 0,0 C 0,0 C 39 % 5 cb 1018,5 hPa 0,0 l/m 11,5 km/h (2 Bft) SO 130 0 min 0,000 mm 0 W/m 9,7 C 24,6 C 11,5 km/h (2 Bft) 0,00 %
13.06.2014 15:45 25,1 C 0,0 C 0,0 C 38 % 6 cb 1018,5 hPa 0,0 l/m 6,1 km/h (2 Bft) N-NW 330 0 min 0,000 mm 0 W/m 9,8 C 25,1 C 6,1 km/h (2 Bft) 0,00 %
13.06.2014 15:50 25,4 C 0,0 C 0,0 C 38 % 5 cb 1018,5 hPa 0,0 l/m 5,4 km/h (1 Bft) S 170 0 min 0,000 mm 0 W/m 10,0 C 25,4 C 5,4 km/h (1 Bft) 0,00 %
13.06.2014 15:55 25,0 C 0,0 C 0,0 C 40 % 5 cb 1018,5 hPa 0,0 l/m 20,9 km/h (4 Bft) N-NW 335 0 min 0,000 mm 0 W/m 10,4 C 25,0 C 20,9 km/h (4 Bft) 0,00 %
13.06.2014 16:00 24,7 C 0,0 C 0,0 C 39 % 4 cb 1018,5 hPa 0,0 l/m 11,5 km/h (2 Bft) O-NO 70 0 min 0,000 mm 0 W/m 9,8 C 24,7 C 11,5 km/h (2 Bft) 0,00 %
13.06.2014 16:05 24,7 C 0,0 C 0,0 C 40 % 6 cb 1018,5 hPa 0,0 l/m 7,3 km/h (2 Bft) SO 135 0 min 0,000 mm 0 W/m 10,2 C 24,7 C 7,3 km/h (2 Bft) 0,00 %
13.06.2014 16:10 24,8 C 0,0 C 0,0 C 40 % 5 cb 1018,5 hPa 0,0 l/m 10,3 km/h (2 Bft) W-NW 300 0 min 0,000 mm 0 W/m 10,3 C 24,8 C 10,3 km/h (2 Bft) 0,00 %
13.06.2014 16:15 25,6 C 0,0 C 0,0 C 39 % 5 cb 1018,5 hPa 0,0 l/m 7,3 km/h (2 Bft) O-NO 60 0 min 0,000 mm 0 W/m 10,6 C 25,6 C 7,3 km/h (2 Bft) 0,00 %
13.06.2014 16:20 25,6 C 0,0 C 0,0 C 39 % 5 cb 1018,5 hPa 0,0 l/m 6,4 km/h (2 Bft) N 350 0 min 0,000 mm 0 W/m 10,6 C 25,6 C 6,4 km/h (2 Bft) 0,00 %
13.06.2014 16:25 25,3 C 0,0 C 0,0 C 39 % 5 cb 1018,5 hPa 0,0 l/m 8,5 km/h (2 Bft) SO 145 0 min 0,000 mm 0 W/m 10,3 C 25,3 C 8,5 km/h (2 Bft) 0,00 %
13.06.2014 16:30 25,2 C 0,0 C 0,0 C 38 % 5 cb 1018,5 hPa 0,0 l/m 11,5 km/h (2 Bft) O 90 0 min 0,000 mm 0 W/m 9,9 C 25,2 C 11,5 km/h (2 Bft) 0,00 %
13.06.2014 16:35 25,0 C 0,0 C 0,0 C 39 % 5 cb 1018,5 hPa 0,0 l/m 15,7 km/h (3 Bft) NO 55 0 min 0,000 mm 0 W/m 10,1 C 25,0 C 15,7 km/h (3 Bft) 0,00 %
13.06.2014 16:40 25,0 C 0,0 C 0,0 C 40 % 5 cb 1018,5 hPa 0,0 l/m 10,3 km/h (2 Bft) N 350 0 min 0,000 mm 0 W/m 10,4 C 25,0 C 10,3 km/h (2 Bft) 0,00 %
13.06.2014 16:45 25,3 C 0,0 C 0,0 C 40 % 5 cb 1017,5 hPa 0,0 l/m 8,5 km/h (2 Bft) NW 305 0 min 0,000 mm 0 W/m 10,7 C 25,3 C 8,5 km/h (2 Bft) 0,00 %
13.06.2014 16:50 25,6 C 0,0 C 0,0 C 38 % 5 cb 1017,5 hPa 0,0 l/m 7,6 km/h (2 Bft) NW 315 0 min 0,000 mm 0 W/m 10,2 C 25,6 C 7,6 km/h (2 Bft) 0,00 %
13.06.2014 16:55 26,4 C 0,0 C 0,0 C 39 % 5 cb 1017,5 hPa 0,0 l/m 4,8 km/h (1 Bft) W 265 0 min 0,000 mm 0 W/m 11,3 C 26,4 C 4,8 km/h (1 Bft) 0,00 %
13.06.2014 17:00 26,7 C 0,0 C 0,0 C 40 % 5 cb 1017,5 hPa 0,0 l/m 4,5 km/h (1 Bft) N-NW 335 0 min 0,000 mm 0 W/m 12,0 C 26,7 C 4,5 km/h (1 Bft) 0,00 %
13.06.2014 17:05 25,5 C 0,0 C 0,0 C 39 % 5 cb 1017,5 hPa 0,0 l/m 9,4 km/h (2 Bft) NW 315 0 min 0,000 mm 0 W/m 10,5 C 25,5 C 9,4 km/h (2 Bft) 0,00 %
13.06.2014 17:10 25,0 C 0,0 C 0,0 C 39 % 3 cb 1017,5 hPa 0,0 l/m 14,8 km/h (3 Bft) N 5 0 min 0,000 mm 0 W/m 10,1 C 25,0 C 14,8 km/h (3 Bft) 0,00 %
13.06.2014 17:15 25,6 C 0,0 C 0,0 C 38 % 5 cb 1017,5 hPa 0,0 l/m 9,4 km/h (2 Bft) O-NO 75 0 min 0,000 mm 0 W/m 10,2 C 25,6 C 9,4 km/h (2 Bft) 0,00 %
13.06.2014 17:20 25,7 C 0,0 C 0,0 C 39 % 5 cb 1017,5 hPa 0,0 l/m 10,3 km/h (2 Bft) W 280 0 min 0,000 mm 0 W/m 10,7 C 25,7 C 10,3 km/h (2 Bft) 0,00 %
13.06.2014 17:25 25,5 C 0,0 C 0,0 C 39 % 5 cb 1017,5 hPa 0,0 l/m 6,7 km/h (2 Bft) W-SW 255 0 min 0,000 mm 0 W/m 10,5 C 25,5 C 6,7 km/h (2 Bft) 0,00 %
13.06.2014 17:30 25,4 C 0,0 C 0,0 C 39 % 5 cb 1017,5 hPa 0,0 l/m 9,1 km/h (2 Bft) W-NW 285 0 min 0,000 mm 0 W/m 10,4 C 25,4 C 9,1 km/h (2 Bft) 0,00 %
13.06.2014 17:35 25,0 C 0,0 C 0,0 C 39 % 6 cb 1017,5 hPa 0,0 l/m 10,6 km/h (2 Bft) SW 220 0 min 0,000 mm 0 W/m 10,1 C 25,0 C 10,6 km/h (2 Bft) 0,00 %
13.06.2014 17:40 25,2 C 0,0 C 0,0 C 39 % 7 cb 1017,5 hPa 0,0 l/m 8,5 km/h (2 Bft) NW 310 0 min 0,000 mm 0 W/m 10,2 C 25,2 C 8,5 km/h (2 Bft) 0,00 %
13.06.2014 17:45 25,3 C 0,0 C 0,0 C 38 % 2 cb 1017,5 hPa 0,0 l/m 8,8 km/h (2 Bft) N-NO 25 0 min 0,000 mm 0 W/m 9,9 C 25,3 C 8,8 km/h (2 Bft) 0,00 %
13.06.2014 17:50 25,3 C 0,0 C 0,0 C 39 % 5 cb 1017,5 hPa 0,0 l/m 8,5 km/h (2 Bft) N 355 0 min 0,000 mm 0 W/m 10,3 C 25,3 C 8,5 km/h (2 Bft) 0,00 %
13.06.2014 17:55 25,0 C 0,0 C 0,0 C 39 % 6 cb 1017,5 hPa 0,0 l/m 8,5 km/h (2 Bft) NW 315 0 min 0,000 mm 0 W/m 10,1 C 25,0 C 8,5 km/h (2 Bft) 0,00 %
13.06.2014 18:00 24,5 C 0,0 C 0,0 C 39 % 5 cb 1017,5 hPa 0,0 l/m 11,2 km/h (2 Bft) N-NO 15 0 min 0,000 mm 0 W/m 9,6 C 24,5 C 11,2 km/h (2 Bft) 0,00 %
13.06.2014 18:05 24,5 C 0,0 C 0,0 C 39 % 4 cb 1017,5 hPa 0,0 l/m 8,8 km/h (2 Bft) N-NO 20 0 min 0,000 mm 0 W/m 9,6 C 24,5 C 8,8 km/h (2 Bft) 0,00 %
13.06.2014 18:10 24,4 C 0,0 C 0,0 C 38 % 6 cb 1017,5 hPa 0,0 l/m 12,7 km/h (3 Bft) W-NW 300 0 min 0,000 mm 0 W/m 9,2 C 24,4 C 12,7 km/h (3 Bft) 0,00 %
13.06.2014 18:15 24,2 C 0,0 C 0,0 C 39 % 4 cb 1017,5 hPa 0,0 l/m 14,5 km/h (3 Bft) N 355 0 min 0,000 mm 0 W/m 9,4 C 24,2 C 14,5 km/h (3 Bft) 0,00 %
13.06.2014 18:20 24,3 C 0,0 C 0,0 C 39 % 6 cb 1017,5 hPa 0,0 l/m 8,8 km/h (2 Bft) N-NW 345 0 min 0,000 mm 0 W/m 9,4 C 24,3 C 8,8 km/h (2 Bft) 0,00 %
13.06.2014 18:25 24,1 C 0,0 C 0,0 C 39 % 4 cb 1017,5 hPa 0,0 l/m 14,8 km/h (3 Bft) N 0 0 min 0,000 mm 0 W/m 9,3 C 24,1 C 14,8 km/h (3 Bft) 0,00 %
13.06.2014 18:30 24,0 C 0,0 C 0,0 C 39 % 6 cb 1017,5 hPa 0,0 l/m 11,8 km/h (2 Bft) NW 325 0 min 0,000 mm 0 W/m 9,2 C 24,0 C 11,8 km/h (2 Bft) 0,00 %
13.06.2014 18:35 24,3 C 0,0 C 0,0 C 39 % 5 cb 1017,5 hPa 0,0 l/m 7,0 km/h (2 Bft) N-NW 330 0 min 0,000 mm 0 W/m 9,4 C 24,3 C 7,0 km/h (2 Bft) 0,00 %
13.06.2014 18:40 24,0 C 0,0 C 0,0 C 39 % 5 cb 1017,5 hPa 0,0 l/m 7,6 km/h (2 Bft) N 355 0 min 0,000 mm 0 W/m 9,2 C 24,0 C 7,6 km/h (2 Bft) 0,00 %
13.06.2014 18:45 23,8 C 0,0 C 0,0 C 40 % 5 cb 1017,5 hPa 0,0 l/m 9,1 km/h (2 Bft) W-SW 250 0 min 0,000 mm 0 W/m 9,4 C 23,8 C 9,1 km/h (2 Bft) 0,00 %
13.06.2014 18:50 23,9 C 0,0 C 0,0 C 40 % 6 cb 1017,5 hPa 0,0 l/m 10,3 km/h (2 Bft) NO 50 0 min 0,000 mm 0 W/m 9,5 C 23,9 C 10,3 km/h (2 Bft) 0,00 %
13.06.2014 18:55 24,1 C 0,0 C 0,0 C 40 % 5 cb 1017,5 hPa 0,0 l/m 6,1 km/h (2 Bft) N 355 0 min 0,000 mm 0 W/m 9,6 C 24,1 C 6,1 km/h (2 Bft) 0,00 %
13.06.2014 19:00 23,8 C 0,0 C 0,0 C 41 % 4 cb 1017,5 hPa 0,0 l/m 8,2 km/h (2 Bft) N-NW 330 0 min 0,000 mm 0 W/m 9,7 C 23,8 C 8,2 km/h (2 Bft) 0,00 %
13.06.2014 19:05 23,3 C 0,0 C 0,0 C 40 % 6 cb 1017,5 hPa 0,0 l/m 11,8 km/h (2 Bft) W 280 0 min 0,000 mm 0 W/m 8,9 C 23,3 C 11,8 km/h (2 Bft) 0,00 %
13.06.2014 19:10 23,4 C 0,0 C 0,0 C 40 % 4 cb 1017,5 hPa 0,0 l/m 9,1 km/h (2 Bft) N 355 0 min 0,000 mm 0 W/m 9,0 C 23,4 C 9,1 km/h (2 Bft) 0,00 %
13.06.2014 19:15 23,1 C 0,0 C 0,0 C 41 % 6 cb 1017,5 hPa 0,0 l/m 11,5 km/h (2 Bft) NW 325 0 min 0,000 mm 0 W/m 9,1 C 23,1 C 11,5 km/h (2 Bft) 0,00 %
13.06.2014 19:20 23,7 C 0,0 C 0,0 C 41 % 5 cb 1017,5 hPa 0,0 l/m 3,3 km/h (1 Bft) N-NW 340 0 min 0,000 mm 0 W/m 9,7 C 23,7 C 3,3 km/h (1 Bft) 0,00 %
13.06.2014 19:25 23,4 C 0,0 C 0,0 C 41 % 5 cb 1017,5 hPa 0,0 l/m 7,3 km/h (2 Bft) N-NW 340 0 min 0,000 mm 0 W/m 9,4 C 23,4 C 7,3 km/h (2 Bft) 0,00 %
13.06.2014 19:30 23,4 C 0,0 C 0,0 C 40 % 6 cb 1017,5 hPa 0,0 l/m 6,7 km/h (2 Bft) NW 320 0 min 0,000 mm 0 W/m 9,0 C 23,4 C 6,7 km/h (2 Bft) 0,00 %
13.06.2014 19:35 23,0 C 0,0 C 0,0 C 41 % 5 cb 1017,5 hPa 0,0 l/m 11,5 km/h (2 Bft) NO 35 0 min 0,000 mm 0 W/m 9,0 C 23,0 C 11,5 km/h (2 Bft) 0,00 %
13.06.2014 19:40 23,2 C 0,0 C 0,0 C 40 % 5 cb 1017,5 hPa 0,0 l/m 9,4 km/h (2 Bft) NO 35 0 min 0,000 mm 0 W/m 8,8 C 23,2 C 9,4 km/h (2 Bft) 0,00 %
13.06.2014 19:45 22,9 C 0,0 C 0,0 C 40 % 4 cb 1017,5 hPa 0,0 l/m 8,5 km/h (2 Bft) N-NO 25 0 min 0,000 mm 0 W/m 8,6 C 22,9 C 8,5 km/h (2 Bft) 0,00 %
13.06.2014 19:50 22,7 C 0,0 C 0,0 C 40 % 6 cb 1017,5 hPa 0,0 l/m 7,3 km/h (2 Bft) W 280 0 min 0,000 mm 0 W/m 8,4 C 22,7 C 7,3 km/h (2 Bft) 0,00 %
13.06.2014 19:55 22,6 C 0,0 C 0,0 C 41 % 4 cb 1017,5 hPa 0,0 l/m 9,7 km/h (2 Bft) N-NO 15 0 min 0,000 mm 0 W/m 8,7 C 22,6 C 9,7 km/h (2 Bft) 0,00 %
13.06.2014 20:00 22,6 C 0,0 C 0,0 C 41 % 6 cb 1017,5 hPa 0,0 l/m 9,7 km/h (2 Bft) N 355 0 min 0,000 mm 0 W/m 8,7 C 22,6 C 9,7 km/h (2 Bft) 0,00 %
13.06.2014 20:05 22,2 C 0,0 C 0,0 C 43 % 3 cb 1017,5 hPa 0,0 l/m 8,8 km/h (2 Bft) NO 55 0 min 0,000 mm 0 W/m 9,0 C 22,2 C 8,8 km/h (2 Bft) 0,00 %
13.06.2014 20:10 21,6 C 0,0 C 0,0 C 47 % 5 cb 1017,5 hPa 0,0 l/m 10,3 km/h (2 Bft) W-NW 300 0 min 0,000 mm 0 W/m 9,8 C 21,6 C 10,3 km/h (2 Bft) 0,00 %
13.06.2014 20:15 21,2 C 0,0 C 0,0 C 48 % 5 cb 1018,5 hPa 0,0 l/m 9,4 km/h (2 Bft) NO 35 0 min 0,000 mm 0 W/m 9,7 C 21,2 C 9,4 km/h (2 Bft) 0,00 %
13.06.2014 20:20 20,9 C 0,0 C 0,0 C 49 % 5 cb 1018,5 hPa 0,0 l/m 14,2 km/h (3 Bft) SW 220 0 min 0,000 mm 0 W/m 9,8 C 20,9 C 14,2 km/h (3 Bft) 0,00 %
13.06.2014 20:25 20,6 C 0,0 C 0,0 C 49 % 5 cb 1018,5 hPa 0,0 l/m 10,0 km/h (2 Bft) W-NW 290 0 min 0,000 mm 0 W/m 9,5 C 20,6 C 10,0 km/h (2 Bft) 0,00 %
13.06.2014 20:30 20,4 C 0,0 C 0,0 C 50 % 2 cb 1017,5 hPa 0,0 l/m 9,7 km/h (2 Bft) N 10 0 min 0,000 mm 0 W/m 9,6 C 20,4 C 9,7 km/h (2 Bft) 0,00 %
13.06.2014 20:35 20,2 C 0,0 C 0,0 C 50 % 1 cb 1017,5 hPa 0,0 l/m 12,1 km/h (2 Bft) NO 50 0 min 0,000 mm 0 W/m 9,4 C 20,2 C 12,1 km/h (2 Bft) 0,00 %
13.06.2014 20:40 19,8 C 0,0 C 0,0 C 51 % 0 cb 1017,5 hPa 0,0 l/m 11,5 km/h (2 Bft) NO 40 0 min 0,000 mm 0 W/m 9,4 C 19,8 C 11,5 km/h (2 Bft) 0,00 %
13.06.2014 20:45 19,6 C 0,0 C 0,0 C 51 % 0 cb 1017,5 hPa 0,0 l/m 11,2 km/h (2 Bft) NO 45 0 min 0,000 mm 0 W/m 9,2 C 19,6 C 11,2 km/h (2 Bft) 0,00 %
13.06.2014 20:50 19,2 C 0,0 C 0,0 C 52 % 0 cb 1017,5 hPa 0,0 l/m 11,2 km/h (2 Bft) N 5 0 min 0,000 mm 0 W/m 9,1 C 19,2 C 11,2 km/h (2 Bft) 0,00 %
13.06.2014 20:55 19,1 C 0,0 C 0,0 C 53 % 0 cb 1017,5 hPa 0,0 l/m 11,5 km/h (2 Bft) N 355 0 min 0,000 mm 0 W/m 9,3 C 19,1 C 11,5 km/h (2 Bft) 0,00 %
13.06.2014 21:00 18,9 C 0,0 C 0,0 C 53 % 0 cb 1017,5 hPa 0,0 l/m 9,4 km/h (2 Bft) O-NO 70 0 min 0,000 mm 0 W/m 9,1 C 18,9 C 9,4 km/h (2 Bft) 0,00 %
13.06.2014 21:05 18,8 C 0,0 C 0,0 C 53 % 0 cb 1017,5 hPa 0,0 l/m 13,0 km/h (3 Bft) W 265 0 min 0,000 mm 0 W/m 9,0 C 18,8 C 13,0 km/h (3 Bft) 0,00 %
13.06.2014 21:10 18,6 C 0,0 C 0,0 C 54 % 0 cb 1017,5 hPa 0,0 l/m 11,8 km/h (2 Bft) N 5 0 min 0,000 mm 0 W/m 9,1 C 18,6 C 11,8 km/h (2 Bft) 0,00 %
13.06.2014 21:15 18,4 C 0,0 C 0,0 C 54 % 0 cb 1018,5 hPa 0,0 l/m 8,5 km/h (2 Bft) N-NW 335 0 min 0,000 mm 0 W/m 8,9 C 18,4 C 8,5 km/h (2 Bft) 0,00 %
13.06.2014 21:20 18,3 C 0,0 C 0,0 C 55 % 0 cb 1018,5 hPa 0,0 l/m 5,4 km/h (1 Bft) NW 325 0 min 0,000 mm 0 W/m 9,1 C 18,3 C 5,4 km/h (1 Bft) 0,00 %
13.06.2014 21:25 18,1 C 0,0 C 0,0 C 56 % 0 cb 1018,5 hPa 0,0 l/m 4,5 km/h (1 Bft) N 5 0 min 0,000 mm 0 W/m 9,2 C 18,1 C 4,5 km/h (1 Bft) 0,00 %
13.06.2014 21:30 17,9 C 0,0 C 0,0 C 56 % 0 cb 1018,5 hPa 0,0 l/m 10,6 km/h (2 Bft) N 355 0 min 0,000 mm 0 W/m 9,0 C 17,9 C 10,6 km/h (2 Bft) 0,00 %
13.06.2014 21:35 17,8 C 0,0 C 0,0 C 57 % 0 cb 1018,5 hPa 0,0 l/m 12,7 km/h (3 Bft) O-SO 120 0 min 0,000 mm 0 W/m 9,2 C 17,8 C 12,7 km/h (3 Bft) 0,00 %
13.06.2014 21:40 17,6 C 0,0 C 0,0 C 57 % 0 cb 1018,5 hPa 0,0 l/m 11,8 km/h (2 Bft) N-NO 15 0 min 0,000 mm 0 W/m 9,0 C 17,6 C 11,8 km/h (2 Bft) 0,00 %
13.06.2014 21:45 17,5 C 0,0 C 0,0 C 58 % 0 cb 1018,5 hPa 0,0 l/m 9,4 km/h (2 Bft) NO 35 0 min 0,000 mm 0 W/m 9,1 C 17,5 C 9,4 km/h (2 Bft) 0,00 %
13.06.2014 21:50 17,4 C 0,0 C 0,0 C 58 % 0 cb 1018,5 hPa 0,0 l/m 7,0 km/h (2 Bft) O-NO 60 0 min 0,000 mm 0 W/m 9,1 C 17,4 C 7,0 km/h (2 Bft) 0,00 %
13.06.2014 21:55 17,3 C 0,0 C 0,0 C 59 % 0 cb 1018,5 hPa 0,0 l/m 6,1 km/h (2 Bft) N 355 0 min 0,000 mm 0 W/m 9,2 C 17,3 C 6,1 km/h (2 Bft) 0,00 %
13.06.2014 22:00 17,2 C 0,0 C 0,0 C 59 % 0 cb 1018,5 hPa 0,0 l/m 8,8 km/h (2 Bft) O-NO 65 0 min 0,000 mm 0 W/m 9,1 C 17,2 C 8,8 km/h (2 Bft) 0,00 %
13.06.2014 22:05 17,2 C 0,0 C 0,0 C 59 % 0 cb 1018,5 hPa 0,0 l/m 6,4 km/h (2 Bft) N-NO 30 0 min 0,000 mm 0 W/m 9,1 C 17,2 C 6,4 km/h (2 Bft) 0,00 %
13.06.2014 22:10 17,1 C 0,0 C 0,0 C 59 % 0 cb 1018,5 hPa 0,0 l/m 7,6 km/h (2 Bft) N-NO 20 0 min 0,000 mm 0 W/m 9,0 C 17,1 C 7,6 km/h (2 Bft) 0,00 %
13.06.2014 22:15 17,0 C 0,0 C 0,0 C 59 % 0 cb 1018,5 hPa 0,0 l/m 7,3 km/h (2 Bft) N 0 0 min 0,000 mm 0 W/m 8,9 C 17,0 C 7,3 km/h (2 Bft) 0,00 %
13.06.2014 22:20 16,9 C 0,0 C 0,0 C 60 % 0 cb 1018,5 hPa 0,0 l/m 6,1 km/h (2 Bft) N 5 0 min 0,000 mm 0 W/m 9,1 C 16,9 C 6,1 km/h (2 Bft) 0,00 %
13.06.2014 22:25 16,8 C 0,0 C 0,0 C 60 % 0 cb 1018,5 hPa 0,0 l/m 6,1 km/h (2 Bft) O-NO 75 0 min 0,000 mm 0 W/m 9,0 C 16,8 C 6,1 km/h (2 Bft) 0,00 %
13.06.2014 22:30 16,8 C 0,0 C 0,0 C 60 % 0 cb 1018,5 hPa 0,0 l/m 6,1 km/h (2 Bft) N-NW 335 0 min 0,000 mm 0 W/m 9,0 C 16,8 C 6,1 km/h (2 Bft) 0,00 %
13.06.2014 22:35 16,8 C 0,0 C 0,0 C 60 % 0 cb 1018,5 hPa 0,0 l/m 6,7 km/h (2 Bft) S-SW 205 0 min 0,000 mm 0 W/m 9,0 C 16,8 C 6,7 km/h (2 Bft) 0,00 %
13.06.2014 22:40 16,7 C 0,0 C 0,0 C 61 % 0 cb 1018,5 hPa 0,0 l/m 6,1 km/h (2 Bft) N 355 0 min 0,000 mm 0 W/m 9,1 C 16,7 C 6,1 km/h (2 Bft) 0,00 %
13.06.2014 22:45 16,7 C 0,0 C 0,0 C 61 % 0 cb 1018,5 hPa 0,0 l/m 6,7 km/h (2 Bft) N 350 0 min 0,000 mm 0 W/m 9,1 C 16,7 C 6,7 km/h (2 Bft) 0,00 %
13.06.2014 22:50 16,6 C 0,0 C 0,0 C 61 % 0 cb 1018,5 hPa 0,0 l/m 7,0 km/h (2 Bft) N 0 0 min 0,000 mm 0 W/m 9,0 C 16,6 C 7,0 km/h (2 Bft) 0,00 %
13.06.2014 22:55 16,5 C 0,0 C 0,0 C 61 % 0 cb 1018,5 hPa 0,0 l/m 5,1 km/h (1 Bft) N-NW 345 0 min 0,000 mm 0 W/m 9,0 C 16,5 C 5,1 km/h (1 Bft) 0,00 %
13.06.2014 23:00 16,3 C 0,0 C 0,0 C 61 % 0 cb 1018,5 hPa 0,0 l/m 5,7 km/h (1 Bft) NO 45 0 min 0,000 mm 0 W/m 8,8 C 16,3 C 5,7 km/h (1 Bft) 0,00 %
13.06.2014 23:05 16,1 C 0,0 C 0,0 C 62 % 0 cb 1018,5 hPa 0,0 l/m 0,0 km/h (0 Bft) N-NO 20 0 min 0,000 mm 0 W/m 8,8 C 16,1 C 0,0 km/h (0 Bft) 0,00 %
13.06.2014 23:10 15,8 C 0,0 C 0,0 C 63 % 0 cb 1018,5 hPa 0,0 l/m 0,0 km/h (0 Bft) N-NW 335 0 min 0,000 mm 0 W/m 8,8 C 15,8 C 0,0 km/h (0 Bft) 0,00 %
13.06.2014 23:15 15,7 C 0,0 C 0,0 C 64 % 0 cb 1018,5 hPa 0,0 l/m 2,4 km/h (1 Bft) NW 325 0 min 0,000 mm 0 W/m 8,9 C 15,7 C 2,4 km/h (1 Bft) 0,00 %
13.06.2014 23:20 15,6 C 0,0 C 0,0 C 64 % 0 cb 1018,5 hPa 0,0 l/m 3,3 km/h (1 Bft) N-NO 15 0 min 0,000 mm 0 W/m 8,8 C 15,6 C 3,3 km/h (1 Bft) 0,00 %
13.06.2014 23:25 15,4 C 0,0 C 0,0 C 65 % 0 cb 1018,5 hPa 0,0 l/m 0,0 km/h (0 Bft) W-NW 300 0 min 0,000 mm 0 W/m 8,9 C 15,4 C 0,0 km/h (0 Bft) 0,00 %
13.06.2014 23:30 15,2 C 0,0 C 0,0 C 65 % 0 cb 1018,5 hPa 0,0 l/m 0,0 km/h (0 Bft) N-NO 20 0 min 0,000 mm 0 W/m 8,7 C 15,2 C 0,0 km/h (0 Bft) 0,00 %
13.06.2014 23:35 15,0 C 0,0 C 0,0 C 66 % 0 cb 1018,5 hPa 0,0 l/m 0,9 km/h (0 Bft) N-NW 340 0 min 0,000 mm 0 W/m 8,7 C 15,0 C 0,9 km/h (0 Bft) 0,00 %
13.06.2014 23:40 15,0 C 0,0 C 0,0 C 66 % 0 cb 1018,5 hPa 0,0 l/m 2,1 km/h (1 Bft) N-NW 340 0 min 0,000 mm 0 W/m 8,7 C 15,0 C 2,1 km/h (1 Bft) 0,00 %
13.06.2014 23:45 14,8 C 0,0 C 0,0 C 67 % 0 cb 1018,5 hPa 0,0 l/m 0,3 km/h (0 Bft) N-NW 345 0 min 0,000 mm 0 W/m 8,7 C 14,8 C 0,3 km/h (0 Bft) 0,00 %
13.06.2014 23:50 14,8 C 0,0 C 0,0 C 67 % 0 cb 1018,5 hPa 0,0 l/m 0,0 km/h (0 Bft) N 350 0 min 0,000 mm 0 W/m 8,7 C 14,8 C 0,0 km/h (0 Bft) 0,00 %
13.06.2014 23:55 14,7 C 0,0 C 0,0 C 67 % 0 cb 1018,5 hPa 0,0 l/m 0,0 km/h (0 Bft) NW 315 0 min 0,000 mm 0 W/m 8,6 C 14,7 C 0,0 km/h (0 Bft) 0,00 %
_ Min-Zeit 05:40 00:00 00:00 14:20 00:00 16:45 - 23:05 - - - - - 05:40 05:40 23:05 00:00
Minimum _ 12,2 C 0,0 C 0,0 C 38 % 0 cb 1017,5 hPa - 0,0 km/h (0 Bft) - - - - - 7,7 C 12,2 C 0,0 km/h (0 Bft) 0,00 %
_ Max-Zeit 17:00 00:00 00:00 04:55 10:45 00:00 00:00 15:55 - - 00:00 00:00 00:00 17:00 17:00 15:55 00:00
Maximum _ 26,7 C 0,0 C 0,0 C 74 % 8 cb 1022,5 hPa 0,0 l/m 20,9 km/h
N-NW (4 Bft)
- - 0 min 0,000 mm 0 W/m 12,0 C 26,7 C 20,9 km/h
N-NW (4 Bft)
0,00 %
Durchschnitt _ 19,0 C 0,0 C 0,0 C 55 % 3 cb 1019,7 hPa #0,0 l/m 8,2 km/h (2 Bft) N - #0 min. #0,000 mm 0 W/m 9,3 C 19,0 C 8,2 km/h (2 Bft) 0,00 %
Wetterstation Gdesweiler